TimeEST,TemperatureF,Dew PointF,Humidity,Sea Level PressureIn,VisibilityMPH,Wind Direction,Wind SpeedMPH,Gust SpeedMPH,PrecipitationIn,Events,Conditions,WindDirDegrees,DateUTC
12:53 AM,8.1,3.9,83,29.98,4.0,SSW,6.9,-,0.00,Snow,Light Snow,210,2013-01-02 05:53:00
1:19 AM,8.6,5.0,85,29.94,3.0,SW,6.9,-,0.00,Snow,Light Snow,220,2013-01-02 06:19:00
1:29 AM,10.4,5.0,79,29.94,5.0,SSW,5.8,-,0.00,Snow,Light Snow,210,2013-01-02 06:29:00
1:53 AM,10.0,5.0,80,29.96,10.0,SSW,5.8,-,0.00,,Overcast,200,2013-01-02 06:53:00
2:53 AM,12.0,6.1,77,29.94,6.0,SSW,6.9,-,0.00,Snow,Light Snow,200,2013-01-02 07:53:00
3:53 AM,12.9,7.0,77,29.91,5.0,SW,9.2,-,0.00,Snow,Light Snow,220,2013-01-02 08:53:00
4:36 AM,12.2,8.6,85,29.88,2.5,SW,9.2,-,0.00,Snow,Light Snow,230,2013-01-02 09:36:00
4:53 AM,14.0,8.1,77,29.91,2.5,SW,8.1,-,0.00,Snow,Light Snow,230,2013-01-02 09:53:00
5:04 AM,14.0,8.6,79,29.88,3.0,WSW,9.2,-,0.00,Snow,Light Snow,240,2013-01-02 10:04:00
5:14 AM,14.0,8.6,79,29.88,4.0,WSW,6.9,-,0.00,Snow,Light Snow,240,2013-01-02 10:14:00
5:53 AM,15.1,10.0,80,29.92,10.0,WSW,4.6,-,0.00,,Overcast,240,2013-01-02 10:53:00
6:53 AM,15.8,10.4,79,29.93,5.0,NW,10.4,-,N/A,Snow,Light Snow,310,2013-01-02 11:53:00
7:53 AM,12.9,7.0,77,30.00,10.0,NW,12.7,19.6,0.00,,Mostly Cloudy,310,2013-01-02 12:53:00
8:53 AM,10.0,5.0,80,30.06,7.0,NW,8.1,-,N/A,,Overcast,310,2013-01-02 13:53:00
9:53 AM,10.0,3.9,76,30.11,10.0,NW,9.2,-,N/A,,Overcast,310,2013-01-02 14:53:00
10:53 AM,8.1,-2.0,64,30.14,10.0,NNW,16.1,-,0.00,,Clear,330,2013-01-02 15:53:00
11:53 AM,6.1,-7.1,55,30.15,10.0,NW,9.2,-,N/A,,Clear,320,2013-01-02 16:53:00
12:53 PM,5.0,-9.0,52,30.16,10.0,NNW,11.5,20.7,N/A,,Clear,330,2013-01-02 17:53:00
1:53 PM,3.9,-9.9,53,30.19,10.0,NW,9.2,-,N/A,,Clear,320,2013-01-02 18:53:00
2:53 PM,3.0,-11.0,52,30.22,10.0,WNW,9.2,-,N/A,,Scattered Clouds,300,2013-01-02 19:53:00
3:53 PM,1.9,-11.0,55,30.26,10.0,NW,8.1,-,N/A,,Clear,320,2013-01-02 20:53:00
4:53 PM,-0.0,-11.9,57,30.28,10.0,NW,5.8,-,N/A,,Clear,310,2013-01-02 21:53:00
5:53 PM,-0.0,-11.0,60,30.31,10.0,WNW,4.6,-,N/A,,Clear,300,2013-01-02 22:53:00
6:53 PM,-0.0,-11.0,60,30.31,10.0,NNW,4.6,-,N/A,,Clear,330,2013-01-02 23:53:00
7:53 PM,-7.1,-15.0,68,30.31,10.0,NW,3.5,-,N/A,,Clear,320,2013-01-03 00:53:00
8:53 PM,-11.9,-17.0,78,30.32,10.0,Calm,Calm,-,N/A,,Clear,0,2013-01-03 01:53:00
9:53 PM,-13.0,-17.0,82,30.33,10.0,Calm,Calm,-,N/A,,Clear,0,2013-01-03 02:53:00
10:53 PM,-17.0,-20.0,86,30.35,10.0,SSW,3.5,-,N/A,,Clear,200,2013-01-03 03:53:00
11:53 PM,-17.0,-20.9,82,30.34,10.0,Calm,Calm,-,N/A,,Clear,0,2013-01-03 04:53:00